Theta_e
317 316 316 315 315 315 316 316 315 313 312 311 310 309 307 306 302 299 299 302 303 306 308 305 307 306 306 305 305 304 303 302 300 301 299 298 298 298 300 301 303 303 304 305 305 306 308 309 308 308 309 309 309 309 307 307 308 307 305 304 300 297 296 296 297 297 297 297 296 295 294 293 293 294
315 314 314 314 313 314 314 314 314 313 312 311 310 309 308 307 304 303 300 301 305 305 308 307 306 305 305 305 304 303 302 299 299 299 298 298 297 297 298 300 301 301 303 303 304 305 307 306 306 306 305 306 305 305 304 305 303 303 301 299 297 295 296 296 297 297 297 296 295 294 293 293 293 292
311 311 310 312 311 312 312 313 313 313 312 311 310 309 308 307 306 305 303 299 303 307 304 306 307 304 303 302 302 302 302 300 299 298 297 296 295 294 295 296 298 299 300 302 303 304 307 306 305 305 304 303 304 304 303 301 300 299 298 297 297 296 296 296 297 296 295 294 294 293 293 292 292 292
309 309 308 308 309 310 310 310 310 310 310 311 310 310 309 308 307 305 303 300 300 305 305 306 306 304 300 299 298 298 299 299 294 296 295 295 292 292 293 294 295 296 298 300 301 302 305 305 304 303 302 303 303 302 300 298 297 297 296 295 295 295 296 296 296 295 294 293 292 292 291 291 291 291
306 306 306 307 307 308 307 308 308 308 308 309 309 308 307 306 305 304 301 299 299 303 306 305 305 306 304 299 297 296 295 294 294 293 294 294 293 292 292 292 292 294 295 297 299 301 304 304 303 301 301 301 300 299 297 296 295 295 294 294 296 296 296 296 294 294 292 292 291 291 290 290 290 289
304 304 304 304 304 305 305 306 305 305 305 305 304 304 305 305 305 306 303 301 300 299 303 303 302 297 297 297 295 294 294 293 292 292 291 291 291 291 291 291 291 292 294 295 297 299 302 302 301 300 299 299 296 297 297 295 294 294 294 294 295 296 296 295 294 292 291 291 290 290 290 289 289 288
302 302 302 302 302 303 302 302 302 302 300 301 300 300 300 300 301 299 301 300 298 298 299 302 301 300 295 295 295 293 293 293 292 291 290 290 290 290 290 290 290 291 293 295 296 298 301 301 299 298 297 297 296 295 294 293 294 294 294 294 295 294 294 293 291 291 290 290 290 289 289 288 288 287
301 301 300 301 301 300 299 298 298 299 299 298 298 299 299 299 299 300 300 299 299 298 298 300 300 300 298 293 293 292 291 291 290 290 289 290 289 288 288 288 288 290 293 294 295 296 299 299 298 297 297 296 295 294 294 293 293 293 294 294 293 292 291 290 289 289 289 289 289 288 288 287 286 286
299 299 299 299 298 298 296 296 296 297 296 297 297 297 297 297 298 298 298 298 298 297 296 297 299 298 296 293 290 290 289 289 288 288 287 287 287 287 287 287 288 290 292 293 294 295 298 297 297 297 295 294 293 294 293 293 293 293 292 291 290 290 289 289 288 288 288 287 287 287 287 286 285 285
298 298 298 297 297 296 295 295 295 296 295 296 296 296 296 297 297 296 296 296 296 296 296 296 295 297 294 292 290 288 289 288 286 285 285 285 286 286 285 286 286 287 288 290 293 296 297 297 296 295 294 293 293 293 292 293 292 291 290 289 289 289 288 288 287 287 286 285 285 285 285 284 284 284
297 297 297 296 296 295 295 295 294 295 295 295 295 295 295 296 295 295 295 295 294 294 294 294 295 295 295 292 291 287 288 288 287 285 283 282 285 285 285 285 286 286 287 290 293 292 292 293 292 292 292 293 292 292 292 292 290 289 288 289 288 288 288 287 286 286 285 285 284 283 283 283 283 283
296 296 296 295 295 295 295 295 295 295 294 294 294 295 295 295 294 294 294 294 294 293 293 293 293 294 294 290 287 286 285 284 284 285 285 284 283 283 285 285 285 286 287 287 288 291 291 290 290 291 291 292 292 292 291 289 288 287 288 288 288 287 287 286 286 285 284 283 283 282 282 281 282 283
295 295 295 295 296 295 291 291 292 292 293 294 293 293 294 293 293 293 293 293 293 292 292 292 293 292 292 292 286 283 283 283 285 285 285 284 284 283 284 285 286 286 286 286 286 285 286 285 286 286 286 288 289 288 288 287 287 287 288 287 287 287 286 285 285 284 283 282 282 282 281 281 281 281
294 294 294 294 291 290 289 289 290 291 291 291 292 293 293 292 291 291 291 291 291 291 291 291 291 291 291 292 289 287 286 286 286 284 284 283 283 283 283 284 285 286 286 285 284 284 285 285 285 285 285 285 285 284 283 283 285 286 287 287 286 286 285 284 284 283 282 282 281 281 280 280 280 280
292 293 294 294 292 291 290 291 290 291 291 291 291 291 291 291 291 290 289 290 290 290 290 291 291 290 290 291 290 288 287 286 285 285 284 283 282 281 280 279 282 285 286 285 283 282 285 285 284 284 282 281 281 281 282 285 286 286 286 286 285 285 284 283 283 282 281 281 281 280 280 279 279 279
292 292 292 293 293 293 293 293 293 292 291 291 291 291 291 291 292 292 290 289 289 289 289 289 290 290 290 291 291 289 287 286 285 284 284 283 282 281 281 281 279 283 286 284 281 280 283 283 281 279 280 280 280 281 284 286 286 286 286 285 284 284 283 283 282 281 281 280 280 279 279 279 279 279
291 291 291 291 292 293 289 290 292 292 292 291 291 291 291 291 291 292 293 292 290 290 289 289 289 290 290 290 290 289 287 287 285 284 282 283 282 282 282 281 281 283 285 283 279 277 280 281 279 277 279 280 281 282 285 286 286 286 285 284 283 283 282 282 281 280 280 279 279 279 278 278 278 278
291 291 291 290 290 291 292 292 292 292 292 292 292 291 291 291 291 291 291 290 290 289 290 289 288 290 290 290 291 289 288 286 285 284 282 283 282 282 282 283 282 284 285 281 279 276 278 279 278 276 277 280 281 281 284 285 285 285 284 283 282 282 281 281 280 279 279 279 278 278 278 277 277 277
291 291 291 290 290 290 291 291 291 291 291 291 290 289 289 289 290 290 290 290 290 290 290 289 289 290 290 290 290 290 288 287 287 286 285 284 283 283 282 281 282 283 284 282 280 275 276 278 276 275 277 279 279 281 284 285 284 284 283 282 281 281 280 280 279 279 279 278 277 277 277 277 277 277
290 290 290 290 290 290 290 290 291 291 290 289 288 287 287 288 288 289 289 291 291 290 290 290 290 290 290 291 290 290 288 287 286 285 285 284 282 280 279 277 280 280 283 282 280 276 275 277 274 274 277 278 278 279 280 283 283 283 282 281 281 280 279 279 278 278 278 277 277 277 276 276 276 276
290 290 290 290 289 289 289 290 291 291 290 288 287 287 287 287 287 287 288 290 291 291 291 291 292 292 293 293 293 293 293 288 286 284 282 281 281 279 277 277 278 278 281 282 281 276 274 274 274 273 275 276 276 277 278 279 282 282 281 280 280 279 279 278 278 277 277 277 276 276 275 275 275 275
289 289 287 287 289 288 288 289 290 291 289 287 287 286 286 286 286 287 288 288 288 290 290 290 290 290 291 291 292 292 292 290 287 284 281 281 281 279 278 276 277 278 280 280 280 276 273 273 274 272 272 273 275 275 277 278 279 280 279 279 279 278 278 277 277 276 276 276 275 275 275 274 274 272
288 288 288 287 288 288 288 290 291 291 289 287 287 287 286 285 285 286 287 287 287 287 287 286 286 286 287 288 288 288 290 289 286 285 284 283 281 279 278 278 277 275 276 279 281 273 272 272 272 271 270 268 270 273 275 276 275 275 275 275 275 276 276 276 275 275 275 275 274 274 274 274 273 272
286 287 287 288 289 290 291 291 291 291 291 289 288 287 286 285 285 287 287 287 287 286 286 286 286 286 286 286 286 286 286 286 285 285 285 284 282 281 279 278 277 276 275 279 280 274 273 273 271 274 272 268 266 269 272 273 273 273 272 271 271 273 273 274 273 274 274 273 273 273 273 273 273 270
285 285 286 287 288 290 290 290 290 290 290 290 288 287 286 286 287 288 287 287 286 286 286 285 285 285 285 285 285 285 285 285 285 285 284 284 284 282 280 278 278 276 277 279 280 275 272 272 272 272 272 271 268 267 269 270 271 271 271 271 270 270 270 270 271 270 272 272 272 272 272 272 272 271
285 285 286 286 287 288 288 289 289 289 290 289 288 287 289 289 289 287 287 287 287 286 285 285 284 284 282 280 278 278 278 279 280 280 280 280 279 281 281 280 277 274 275 279 281 276 273 272 273 271 269 268 267 268 267 268 269 270 271 270 270 270 269 269 269 269 268 268 268 270 270 271 271 272
284 285 285 286 286 287 287 288 288 288 288 288 287 288 288 288 289 288 287 286 285 284 284 283 281 279 278 277 276 275 274 274 275 276 275 275 274 274 274 275 277 278 278 278 278 277 275 273 274 272 270 269 267 267 267 266 267 269 268 269 269 269 269 268 268 268 268 268 268 270 270 271 271 271
285 285 285 285 286 287 287 287 287 288 287 286 287 288 288 288 287 286 285 285 284 283 282 280 278 276 276 274 273 273 272 272 272 272 272 272 272 271 270 271 272 273 274 275 276 276 276 274 273 273 271 269 268 266 266 268 267 267 266 268 268 267 267 267 267 267 267 267 267 268 267 266 267 267
285 285 286 286 286 286 287 287 287 287 286 287 287 287 287 286 285 285 285 284 283 281 280 278 276 273 272 270 269 269 269 270 270 270 269 269 269 268 268 267 267 268 269 271 273 274 274 274 272 272 272 271 270 269 267 266 266 266 267 265 264 265 266 267 266 265 266 267 266 267 266 266 265 267
286 286 286 286 286 286 286 285 285 284 285 285 286 286 285 285 284 284 284 283 282 280 278 276 272 269 268 268 269 271 272 271 270 270 270 270 270 270 269 268 266 265 266 267 270 271 272 272 272 271 270 270 270 268 267 266 266 266 267 266 265 266 265 265 266 265 265 265 265 265 266 266 265 266
285 285 285 285 286 285 285 285 285 285 285 284 284 285 285 285 285 284 283 282 281 279 275 271 269 269 269 270 271 272 272 271 271 272 271 270 269 269 269 267 265 264 265 265 266 267 269 270 270 270 268 267 268 268 268 267 265 264 265 265 265 262 264 264 265 264 264 265 265 264 265 266 266 266
285 285 285 285 285 285 285 284 284 284 284 285 284 284 285 285 284 283 281 279 276 275 273 270 270 270 271 271 271 271 271 271 271 271 271 270 269 269 268 266 264 264 264 264 265 265 265 266 268 268 268 267 265 265 266 266 265 265 264 264 264 264 264 263 263 264 264 263 262 261 263 264 263 265
285 285 284 283 283 283 283 283 282 283 283 283 284 284 283 282 281 280 279 276 273 271 270 270 270 270 270 270 270 270 269 270 270 271 270 270 269 269 268 266 265 264 263 262 263 263 264 263 264 264 265 266 266 266 265 263 263 264 263 263 262 262 262 263 263 263 263 262 260 260 260 263 264 265
284 283 282 282 282 282 282 281 281 281 282 282 282 281 282 281 280 279 276 274 272 272 271 271 271 270 270 269 269 269 268 268 269 271 271 270 269 267 266 265 264 264 263 262 262 262 262 263 264 264 263 263 263 262 263 263 263 263 263 263 262 261 262 261 262 262 262 261 260 258 258 260 262 264
283 282 281 282 282 282 282 281 281 281 281 281 281 280 280 279 278 276 274 273 273 272 272 271 271 270 270 269 269 269 268 268 269 269 269 269 268 266 266 264 263 263 262 262 262 262 262 262 263 262 262 263 262 262 266 263 262 263 262 262 261 261 261 262 261 261 261 260 261 258 257 259 260 264
282 282 281 281 281 282 281 281 281 281 281 280 280 279 278 277 276 275 273 273 273 273 272 271 270 270 269 269 269 268 268 268 268 268 268 268 267 266 265 264 263 263 263 262 262 262 263 263 263 263 262 262 262 260 260 266 265 262 261 261 261 260 260 259 259 259 259 259 260 258 257 256 258 262
281 281 281 281 282 281 281 281 281 280 280 280 279 279 277 275 274 274 274 274 273 273 272 271 270 270 269 269 269 268 268 268 267 267 267 267 266 265 264 263 263 263 262 262 262 262 263 263 264 265 264 263 261 261 260 261 264 266 261 261 260 261 259 260 258 258 259 259 258 259 257 257 258 261
281 281 281 281 281 281 281 280 280 279 279 279 279 277 275 273 273 273 274 274 273 273 272 271 271 270 269 269 268 267 268 268 267 266 266 266 265 264 263 263 263 262 261 261 262 262 263 263 263 264 264 264 262 262 258 259 257 261 266 263 261 260 260 258 257 256 258 258 258 259 260 257 259 261
281 281 281 281 280 280 280 280 279 278 278 278 277 274 272 272 273 273 273 273 273 272 272 271 271 270 269 268 268 268 267 266 266 265 265 265 265 264 263 263 261 261 261 260 261 261 262 263 263 263 264 263 263 262 262 259 259 260 265 267 263 260 259 258 257 257 256 256 257 259 258 260 264 267
281 281 281 280 280 280 279 279 278 278 277 277 275 273 273 272 272 272 272 272 272 272 272 271 271 270 269 269 269 268 268 267 266 265 265 265 264 264 263 262 261 261 260 260 259 260 261 262 261 260 260 259 258 259 260 261 261 263 264 266 267 262 258 259 257 257 257 258 258 256 255 257 255 258
280 279 279 279 279 279 278 278 277 277 275 274 273 273 273 273 272 272 272 272 272 271 271 270 270 269 269 269 269 269 268 266 265 265 265 264 263 263 262 262 261 261 260 259 260 260 260 258 259 262 258 258 257 259 260 259 258 258 259 262 266 267 266 265 261 260 258 259 257 255 254 254 255 256
280 279 279 278 278 278 278 277 276 274 273 273 273 272 272 272 272 272 272 271 271 270 270 269 269 268 268 268 269 269 267 266 265 264 263 263 262 262 262 262 261 261 261 260 261 259 256 257 259 258 258 258 259 259 258 259 258 258 257 258 259 265 266 266 266 266 263 260 257 255 254 254 256 255
277 277 277 277 276 276 276 274 274 273 272 272 272 272 272 271 271 270 270 270 270 269 269 269 269 269 268 268 269 269 267 265 264 263 263 262 262 261 261 262 262 262 262 259 257 257 257 257 257 258 258 257 258 258 259 258 258 257 256 256 257 257 257 264 265 265 266 266 266 262 259 256 254 252
276 276 276 275 275 275 274 273 273 272 272 271 271 271 271 270 270 270 270 270 269 269 268 268 268 268 268 268 268 268 267 265 263 263 262 262 262 262 262 262 262 261 259 258 257 257 257 257 257 258 257 257 257 257 257 256 255 256 255 255 255 254 254 255 256 261 263 265 266 267 268 268 266 265
275 275 274 273 273 273 273 272 272 271 271 271 271 271 270 270 269 269 269 268 268 268 267 267 267 267 267 267 268 266 264 264 263 263 263 263 263 262 262 262 261 260 259 258 257 257 257 256 257 257 257 256 256 256 256 255 255 254 254 253 252 254 254 255 254 253 254 254 261 265 266 267 267 268
Wind_Speed
10 10 11 10 9 8 7 8 9 10 9 9 9 9 11 10 12 14 15 20 17 10 5 8 5 9 9 9 7 8 8 10 12 8 7 8 9 13 16 20 22 22 22 22 23 25 23 20 20 21 19 17 14 13 11 11 20 24 19 18 17 13 10 7 6 7 9 10 9 6 4 2 1 3
8 9 9 8 9 9 9 10 8 8 8 8 9 10 10 10 13 12 14 19 19 13 7 6 8 3 7 6 6 6 6 9 11 6 7 8 9 14 14 17 19 20 20 21 22 23 21 18 17 16 14 16 16 16 15 17 20 22 22 19 15 12 9 6 7 9 13 10 8 6 4 2 0 2
8 9 10 9 10 10 10 10 10 10 10 9 8 8 8 9 11 13 12 15 21 13 9 6 4 3 4 3 4 3 4 5 7 6 6 7 12 13 10 13 17 18 19 19 20 21 22 19 18 17 17 18 19 18 20 21 22 21 19 17 14 10 6 6 10 14 12 10 8 6 4 3 1 2
8 10 11 11 10 10 9 10 9 9 8 9 10 10 11 11 11 11 12 15 23 19 9 11 8 4 4 5 6 7 6 6 6 6 6 8 9 6 8 12 16 17 18 19 19 20 19 18 19 19 19 20 21 22 21 21 20 19 17 12 8 6 7 10 15 14 12 10 9 7 5 3 2 2
9 10 10 11 11 11 11 10 9 10 10 10 9 9 8 9 7 7 10 14 18 20 13 9 12 9 7 6 6 7 6 5 6 6 5 5 5 6 6 7 11 14 16 17 17 19 18 18 16 18 18 20 21 21 20 18 17 16 12 9 10 11 12 16 16 14 12 11 9 7 5 4 3 3
8 9 11 12 12 10 11 11 11 10 10 9 9 10 9 11 12 11 13 15 16 22 18 10 5 5 4 9 4 7 8 7 5 6 5 4 5 7 6 6 6 12 15 17 18 18 18 17 18 16 18 21 19 20 20 19 16 13 10 11 13 14 17 16 15 14 13 11 8 7 6 5 3 3
9 10 10 12 11 9 10 10 10 10 10 9 10 12 9 10 11 7 8 10 14 17 18 13 9 8 4 8 7 6 7 6 5 7 7 7 5 5 6 6 5 10 16 19 19 19 19 20 20 19 19 21 22 20 18 14 11 10 11 13 13 16 17 16 15 14 12 10 9 8 6 5 4 3
9 10 11 11 10 9 10 10 9 9 9 10 10 12 11 11 13 11 11 12 14 15 19 20 13 9 10 7 7 3 3 5 6 6 5 3 6 4 4 5 6 8 15 17 19 20 19 25 24 22 20 21 21 19 15 13 11 12 12 12 16 17 16 15 14 12 12 11 10 8 7 6 4 2
10 11 11 11 9 9 10 12 10 8 10 10 10 11 10 10 11 11 11 12 12 14 17 18 14 10 8 5 2 4 5 4 4 2 4 4 4 3 3 4 5 8 14 16 17 18 18 22 21 22 23 20 17 15 15 15 15 13 14 18 17 16 15 14 13 13 12 11 9 8 7 5 3 2
9 10 11 11 10 10 11 12 11 10 11 11 11 12 11 11 10 12 12 11 12 14 15 16 16 13 10 8 7 5 7 6 5 3 2 1 2 4 5 5 4 4 6 6 9 12 15 16 20 23 21 19 18 17 16 15 13 18 19 17 16 15 15 14 14 13 12 11 10 8 6 4 3 4
10 11 11 11 11 11 11 12 12 11 11 11 12 12 12 12 12 12 12 11 12 13 14 14 14 14 11 8 9 3 6 6 5 6 3 5 5 5 6 5 4 5 5 4 6 7 6 13 14 19 19 19 19 18 16 17 21 19 18 17 16 16 15 15 14 13 12 10 10 8 6 4 4 4
10 10 11 11 11 12 11 11 11 11 11 10 12 11 10 11 12 12 11 11 11 12 12 13 14 11 13 5 0 3 3 3 3 5 8 10 6 6 6 7 6 5 6 3 6 10 13 16 16 19 18 18 18 19 20 22 20 19 17 17 16 16 15 15 14 13 12 10 9 8 7 5 4 5
10 10 10 11 11 11 13 16 16 16 15 13 14 14 10 10 11 12 10 10 11 11 12 13 11 12 12 10 5 6 7 9 11 7 7 7 4 5 5 4 4 5 7 6 8 8 9 9 8 7 7 9 16 18 19 17 21 20 18 17 16 16 16 15 14 13 12 10 9 8 6 5 5 4
9 10 11 11 14 16 17 17 18 19 19 20 17 15 13 12 11 12 12 11 10 10 12 12 12 13 13 12 8 9 10 6 3 4 7 7 5 5 5 4 3 6 9 9 10 8 7 10 8 8 9 8 11 9 9 9 12 15 18 18 17 16 15 15 13 13 11 10 9 7 6 6 4 3
12 10 10 10 11 12 13 14 17 17 19 20 21 23 22 19 16 14 14 14 11 11 12 12 12 12 14 13 8 9 7 6 9 9 8 9 7 9 10 9 3 4 10 9 8 7 7 9 9 7 7 8 10 9 9 17 18 18 18 18 17 16 15 14 14 12 11 10 8 7 7 5 3 2
10 12 11 10 9 9 11 12 12 15 18 19 21 22 22 21 22 21 17 15 13 12 12 13 14 13 13 13 9 7 5 7 7 9 9 10 11 8 9 10 10 7 10 10 9 7 3 6 9 7 7 8 7 9 15 20 19 19 19 18 17 16 15 14 13 12 11 9 8 7 6 4 3 2
12 11 11 12 9 8 12 12 12 12 14 16 20 21 22 22 22 21 23 22 17 13 14 15 16 14 12 11 11 7 7 8 10 8 8 9 10 12 10 9 6 9 9 10 9 8 4 7 9 8 6 8 8 11 16 20 20 20 19 18 16 16 15 14 13 12 10 9 8 7 5 3 1 1
12 11 11 12 12 11 10 10 12 12 13 13 13 12 11 11 14 17 19 20 22 19 16 15 16 15 11 13 12 8 7 9 11 10 11 10 8 11 11 7 7 8 10 13 11 6 5 7 10 7 6 7 8 7 15 20 20 19 18 17 16 16 15 14 12 11 10 9 8 6 4 2 0 2
12 12 11 11 12 13 12 9 11 12 13 13 13 12 13 13 12 12 11 10 11 12 12 13 14 16 14 13 12 11 7 12 12 13 14 14 12 7 7 7 9 10 9 11 12 8 6 6 9 7 8 7 8 6 14 19 19 18 17 17 16 15 14 13 12 11 10 9 7 6 4 2 1 3
11 11 11 11 12 13 13 13 15 14 13 13 15 16 14 14 12 12 11 14 16 14 13 12 13 12 13 14 12 10 8 8 5 4 5 6 8 9 8 10 10 11 8 10 10 7 6 5 10 6 6 7 8 6 6 16 18 17 16 15 15 14 13 12 11 11 10 8 7 5 3 1 2 4
12 12 11 11 12 13 13 14 16 17 16 13 16 15 16 14 13 12 10 13 18 19 20 22 23 23 24 23 24 22 21 12 9 8 8 10 10 10 8 7 11 10 9 7 7 11 9 6 10 9 6 6 7 6 6 6 14 16 15 14 14 13 12 12 11 10 9 8 6 4 3 1 2 5
10 13 17 14 12 13 14 17 18 18 15 12 14 14 15 17 16 13 9 8 10 15 18 20 21 20 21 21 22 24 17 18 14 12 14 13 12 11 11 9 9 8 8 7 10 10 7 9 9 10 6 7 4 6 5 6 9 15 13 14 13 12 11 11 11 9 8 7 5 4 3 1 2 2
11 11 12 16 15 14 16 21 20 20 15 12 12 13 13 15 17 15 12 12 12 10 9 9 10 11 13 13 12 11 17 20 17 13 12 12 13 12 11 11 10 8 5 7 12 11 7 11 8 12 7 4 3 1 4 7 8 8 7 7 7 10 10 10 9 8 6 6 5 4 3 2 2 2
11 12 12 12 16 17 18 19 20 19 17 13 11 11 12 13 15 13 12 12 11 11 11 10 8 10 8 7 7 5 8 11 14 11 8 11 12 11 12 12 14 13 6 7 11 12 8 11 10 4 5 11 6 3 3 5 6 6 6 6 5 7 8 8 6 6 5 5 5 4 3 1 1 1
12 12 12 11 14 17 17 17 19 19 19 17 13 12 12 13 15 16 14 14 15 12 11 9 8 7 6 6 5 5 6 7 7 6 5 8 8 10 11 10 9 6 7 10 14 13 8 9 10 6 5 4 6 8 4 5 5 5 5 6 6 5 5 4 4 4 4 4 4 3 1 0 2 1
12 11 12 11 14 18 19 20 19 21 21 21 14 14 18 24 24 16 13 12 10 9 7 6 4 3 1 2 3 4 5 5 6 6 6 6 6 4 3 9 12 10 9 11 18 12 13 10 10 9 6 7 5 8 8 5 5 5 4 3 5 5 4 3 4 3 3 2 1 1 1 1 2 3
13 12 13 13 17 18 19 21 25 26 29 22 16 23 25 26 24 18 11 10 9 5 4 3 3 1 2 4 4 4 5 5 7 8 8 11 14 12 12 11 6 6 9 9 8 11 12 9 8 10 9 9 11 7 7 7 5 5 4 4 4 4 3 3 2 3 3 2 1 2 2 3 3 3
12 13 13 14 20 24 25 27 28 28 27 19 24 25 26 24 19 13 11 9 8 5 3 3 3 2 3 4 5 4 4 6 8 9 9 10 11 13 12 13 13 10 9 7 7 8 10 11 8 4 10 12 11 11 8 4 5 7 6 5 4 4 3 3 2 2 1 2 1 0 1 2 1 1
12 15 23 25 25 24 24 26 26 22 21 23 23 25 23 18 11 10 10 8 5 5 4 4 4 4 3 3 4 5 6 8 9 11 10 11 13 14 16 14 13 12 10 7 6 6 8 10 9 7 6 5 8 6 8 7 7 6 7 8 3 3 4 4 3 3 2 1 0 0 2 1 2 1
23 23 22 23 22 19 17 14 12 13 14 18 20 21 20 12 10 10 8 6 7 6 4 5 5 3 4 4 5 6 6 8 8 10 11 11 9 11 13 14 12 10 11 11 9 7 7 7 8 8 7 5 6 8 7 9 6 6 7 5 5 5 2 3 4 3 2 0 0 1 3 1 1 0
12 15 15 13 17 19 24 23 19 18 18 15 13 10 10 9 9 8 7 8 7 5 6 5 5 4 4 5 5 6 6 8 6 7 11 11 9 10 10 13 10 10 7 8 11 10 8 7 6 7 10 7 7 6 5 6 8 7 4 4 7 4 4 3 3 3 2 1 1 2 2 1 1 1
13 14 15 16 13 12 12 10 8 8 9 10 10 9 8 7 5 2 5 7 6 6 6 6 6 6 4 5 5 5 6 6 6 5 9 12 10 10 11 12 9 9 6 6 8 11 10 9 7 6 6 7 8 4 5 6 6 7 5 4 3 5 5 4 5 4 3 1 2 1 1 1 2 2
16 14 13 12 12 11 11 10 9 9 9 9 9 9 6 2 2 2 3 5 6 7 9 10 8 7 6 6 5 6 7 6 6 5 8 9 12 7 9 12 10 9 11 6 5 5 6 10 11 9 8 8 7 6 8 7 4 5 6 5 4 4 3 4 3 3 3 1 0 1 3 2 3 3
17 15 14 13 11 11 9 9 9 9 9 8 7 4 3 2 2 3 4 5 6 6 8 8 8 8 7 7 6 6 8 6 5 4 7 7 8 11 11 11 6 5 7 6 5 4 6 7 8 9 9 8 7 7 4 3 6 5 5 4 5 4 4 3 4 3 1 1 1 1 3 4 3 3
14 13 12 13 12 11 10 9 9 8 8 7 7 4 2 1 2 4 5 5 6 7 6 6 7 6 7 8 7 8 8 8 7 6 5 7 6 6 9 9 7 5 6 6 5 5 7 7 8 8 7 5 4 4 5 4 4 5 5 4 3 5 4 4 2 2 3 0 0 0 2 4 4 4
14 13 12 12 12 10 9 8 7 7 7 7 6 4 3 2 2 4 5 6 7 7 6 7 6 7 7 7 7 7 7 8 7 7 7 6 8 8 6 7 8 6 6 6 7 5 5 6 6 8 8 5 4 4 1 5 4 2 6 4 3 3 4 3 3 2 1 0 1 1 2 3 3 3
14 12 12 11 10 8 7 7 7 7 7 6 5 3 2 2 2 3 5 7 5 6 7 6 7 7 7 7 7 7 7 7 8 6 7 6 8 8 8 8 7 7 8 6 5 5 4 5 3 4 7 6 5 5 3 2 3 3 1 5 5 4 4 5 3 2 2 4 1 2 3 3 4 5
13 12 11 11 9 7 6 6 6 6 6 5 3 1 3 3 3 5 6 6 7 5 6 7 7 7 7 7 8 7 6 5 6 8 7 9 11 8 8 9 8 7 7 7 5 4 2 3 2 2 3 6 5 5 3 2 2 2 3 0 6 4 3 3 2 3 1 1 4 3 2 3 5 4
11 11 10 8 6 6 7 7 6 6 5 4 3 3 3 4 4 5 5 5 5 6 7 7 6 6 7 7 7 8 9 8 7 7 9 7 9 10 9 9 9 7 8 7 4 3 2 1 0 1 1 1 4 2 6 7 3 3 4 6 5 5 4 5 2 1 2 0 3 2 2 3 6 11
11 9 8 7 6 5 6 5 4 4 3 1 2 2 4 5 5 5 5 5 6 5 6 6 8 8 7 7 7 6 5 8 8 8 8 8 7 9 9 8 9 9 8 7 6 3 2 2 4 3 3 5 5 5 7 7 5 3 3 5 6 5 2 3 2 3 1 1 0 2 4 3 3 2
9 7 6 5 5 5 5 3 3 1 1 2 3 3 3 4 5 4 5 6 5 7 6 6 7 7 7 7 7 8 8 7 6 7 7 8 8 7 9 9 8 7 9 7 5 5 3 3 2 6 6 5 3 3 6 6 5 3 2 2 5 3 3 5 3 1 1 1 1 2 4 4 4 3
7 6 5 3 4 3 2 2 1 1 1 2 3 3 4 4 3 6 6 6 6 6 6 7 6 7 7 6 6 5 7 8 8 8 7 9 9 8 8 7 8 6 7 7 6 5 3 1 3 3 3 2 1 2 3 6 6 5 3 2 0 2 3 3 4 4 4 4 2 2 2 3 2 3
5 5 5 3 2 2 1 0 0 1 2 2 3 4 4 4 5 6 5 6 6 6 6 6 6 6 6 6 5 5 6 7 9 9 9 9 9 9 8 6 6 6 6 6 6 6 4 2 2 3 1 2 2 1 5 5 6 6 5 4 2 1 2 5 6 7 8 10 11 8 6 3 1 2
5 5 4 2 1 1 0 0 1 1 2 2 3 3 4 5 5 5 5 6 6 6 6 6 6 6 7 6 5 5 6 8 10 10 10 9 8 7 7 7 7 7 8 7 7 6 4 3 2 2 3 2 1 3 6 5 5 5 4 4 2 1 2 2 1 4 6 8 11 13 16 16 14 13
4 3 2 1 1 1 1 1 1 1 1 2 3 3 3 4 4 5 4 4 5 6 6 6 6 6 6 7 7 7 6 7 8 7 7 7 6 6 7 8 8 8 8 7 9 6 4 4 2 2 4 3 2 3 5 5 5 5 2 2 1 1 2 0 1 1 2 4 7 9 10 11 13 15
Wind_Direction
276 272 269 270 275 269 266 261 254 253 249 246 250 243 246 246 259 277 285 285 283 280 213 256 248 202 216 220 216 231 232 236 239 243 233 237 241 241 235 238 241 241 244 246 249 250 239 220 223 227 221 211 191 184 177 174 188 188 174 165 149 161 186 190 160 181 173 159 159 149 129 152 223 301
282 279 279 275 274 272 273 270 269 266 258 250 244 244 237 231 241 252 267 277 280 282 272 229 273 198 224 215 224 216 226 231 233 237 229 233 239 240 230 233 238 240 241 244 247 251 244 212 208 199 184 172 158 151 156 146 133 141 146 155 169 181 196 187 192 168 153 151 146 140 147 157 135 283
287 284 281 278 274 276 274 271 268 263 260 257 254 246 239 236 236 249 253 268 272 267 270 269 221 239 211 214 229 226 229 230 219 220 227 235 244 246 242 236 239 240 242 242 245 249 245 220 204 187 166 162 159 151 147 137 134 137 159 173 180 189 188 190 159 152 150 149 141 142 146 142 197 267
280 278 276 273 273 276 275 271 268 267 261 259 259 254 251 245 236 235 243 248 267 273 260 279 267 215 216 204 219 228 233 235 222 224 221 234 244 239 238 234 233 237 240 241 243 245 241 224 217 189 169 173 171 154 149 139 141 153 164 170 178 189 210 185 161 154 146 136 137 141 138 158 201 244
281 282 280 278 277 277 275 273 274 273 274 270 264 261 256 257 244 234 245 255 267 276 266 256 269 266 263 254 209 236 245 244 237 226 231 229 228 232 234 238 231 234 235 238 239 241 237 217 202 192 174 168 160 155 152 151 149 158 164 168 197 204 199 157 153 144 138 142 144 137 147 172 191 221
283 281 278 279 278 278 276 276 274 271 272 268 267 263 257 256 255 235 240 247 257 269 281 262 247 280 175 259 165 212 231 242 235 237 234 227 220 228 232 232 230 223 230 233 234 237 231 203 184 177 165 157 148 155 160 154 152 159 170 187 200 201 161 153 143 138 140 142 140 145 155 170 191 203
286 282 277 278 280 279 276 273 273 276 273 273 269 268 262 262 263 256 246 261 264 271 276 279 272 270 239 226 239 212 221 237 223 236 231 225 227 227 226 229 229 225 226 227 229 229 223 192 171 166 177 161 155 157 154 148 157 177 193 199 192 157 154 140 136 137 140 144 142 146 160 171 179 187
287 285 285 281 283 283 279 278 276 273 270 267 267 266 263 260 263 260 253 246 260 269 279 278 274 268 272 245 238 220 194 213 223 228 244 228 228 225 218 221 224 224 229 227 230 229 218 189 176 178 179 171 163 161 150 156 170 177 190 180 148 142 140 139 137 139 141 141 148 158 163 169 161 152
285 283 279 282 283 282 279 279 276 273 272 269 265 266 266 261 261 260 252 253 251 260 265 275 275 267 251 264 193 183 200 217 212 202 215 224 233 221 218 226 228 231 232 234 231 235 206 177 176 176 172 168 160 150 153 156 170 181 152 142 141 140 141 140 139 137 139 142 148 151 157 164 141 100
280 281 280 281 281 277 275 276 279 276 272 272 267 266 267 263 262 262 259 253 253 253 261 266 277 271 259 255 235 189 195 208 208 195 212 232 218 206 221 220 212 209 213 221 221 207 175 173 171 170 167 164 153 152 159 173 163 140 140 140 142 143 143 142 140 139 140 147 142 135 138 131 112 83
278 275 277 279 277 274 272 275 277 279 275 270 270 267 266 266 262 261 261 257 254 255 260 264 263 271 265 248 257 186 195 215 208 207 184 228 212 213 207 213 194 193 203 209 167 157 137 152 158 163 162 157 154 161 167 150 137 139 141 145 145 145 144 143 143 144 145 143 130 130 132 125 95 75
274 272 272 272 270 269 270 270 274 273 276 277 274 269 264 266 264 261 263 261 256 258 258 260 267 260 269 253 108 91 156 196 231 203 206 230 209 197 205 200 189 186 170 136 130 137 143 151 158 161 159 160 162 153 141 136 137 140 147 149 148 146 146 146 146 145 142 142 150 147 135 120 89 64
274 275 273 271 271 268 268 267 268 268 268 276 279 275 270 265 267 268 263 262 260 258 259 263 261 265 261 254 207 191 194 202 219 209 197 232 199 186 186 205 180 172 160 147 137 134 147 135 149 152 144 150 144 140 132 133 138 145 149 149 150 148 148 146 144 143 144 150 154 143 127 106 85 60
273 271 273 271 268 268 268 268 266 266 265 260 258 268 274 270 266 267 268 263 260 259 260 259 262 261 260 256 231 229 228 216 205 161 194 206 192 171 194 176 187 167 155 152 152 147 148 141 134 140 134 128 123 116 115 131 140 149 149 147 147 149 149 147 144 142 147 155 149 133 115 98 80 55
285 277 271 273 274 271 267 266 264 263 263 264 263 261 259 259 259 267 267 265 261 260 258 264 260 257 262 258 241 229 228 195 202 205 195 201 178 177 171 185 137 201 160 154 134 137 148 143 135 122 107 109 109 112 124 142 146 149 148 145 147 150 149 146 143 147 153 154 142 123 111 100 82 57
283 284 283 277 274 272 271 272 273 272 268 266 265 263 262 260 257 253 253 263 267 260 262 261 258 259 255 264 252 238 204 209 203 209 199 200 189 182 195 179 184 175 160 147 141 118 101 116 110 93 101 105 102 125 141 146 149 147 145 146 148 150 147 144 146 150 152 145 132 121 112 97 79 26
281 283 285 288 281 276 272 272 271 271 274 269 265 262 264 263 261 260 258 254 252 260 260 262 264 257 262 261 258 226 213 199 211 197 196 204 198 201 198 186 150 155 158 132 125 117 126 123 113 95 103 119 127 138 145 148 149 146 146 147 149 148 144 145 150 151 147 136 125 115 109 99 74 312
277 276 282 287 289 287 280 276 277 277 275 278 277 274 268 265 261 258 255 257 257 253 252 256 262 265 260 257 261 247 203 200 209 197 208 199 194 200 200 171 141 144 157 153 138 114 133 138 123 113 117 124 124 125 147 149 148 147 146 147 148 144 145 149 152 150 140 125 119 113 114 113 210 285
270 274 275 275 279 285 285 278 275 280 283 285 283 279 277 271 269 266 263 258 256 255 253 253 256 262 261 262 263 263 222 214 212 201 202 193 193 163 99 102 141 155 165 150 143 142 146 151 119 119 128 121 119 131 147 146 147 146 147 148 147 145 149 152 149 139 128 120 115 118 123 146 252 284
271 271 271 274 276 278 279 277 275 275 280 285 286 284 280 277 272 266 258 254 256 255 256 256 256 259 260 260 262 261 240 213 194 108 95 115 133 139 149 154 158 160 171 166 149 121 115 131 115 111 117 116 117 127 129 147 145 145 147 147 145 147 151 149 141 129 123 120 120 124 132 166 272 299
273 270 267 267 270 274 275 275 274 276 280 282 283 283 282 280 278 275 271 255 254 256 255 256 256 260 265 266 268 267 252 211 164 151 152 164 154 151 158 157 162 170 157 172 140 126 114 132 121 111 114 112 118 118 120 129 146 143 144 143 144 150 149 141 130 122 118 120 123 129 136 149 322 300
274 273 269 262 265 271 275 277 276 274 272 275 277 281 283 284 285 282 278 270 259 252 253 257 260 262 265 265 265 265 233 188 164 172 182 172 164 176 170 155 160 146 162 160 136 116 118 125 123 110 93 79 59 114 118 128 140 140 138 141 145 147 143 130 121 118 120 124 129 130 117 79 341 293
284 279 277 273 267 265 271 277 280 279 274 272 275 279 282 281 283 285 289 282 280 274 267 258 262 264 262 260 253 240 209 189 183 190 182 163 174 172 165 158 143 119 172 163 146 118 138 131 143 129 117 83 22 35 125 128 129 133 128 131 137 141 130 121 119 123 126 130 131 121 117 55 4 280
289 285 284 277 275 275 273 277 281 283 279 274 274 278 281 283 280 290 287 279 277 275 268 267 260 262 261 251 236 216 209 198 189 187 175 175 172 171 162 166 167 166 142 159 144 122 138 143 147 166 140 142 156 188 140 135 137 139 141 140 139 134 120 121 123 137 143 141 133 124 104 45 9 256
289 290 286 288 282 283 285 287 288 287 284 280 276 273 273 269 277 285 284 283 276 268 266 264 258 255 239 222 221 203 197 187 183 170 163 172 177 166 161 159 164 133 137 150 141 128 138 155 146 132 100 85 115 130 153 133 143 142 157 158 145 145 135 139 145 158 164 159 148 129 63 4 305 242
283 283 287 289 290 292 292 291 287 284 284 283 282 273 271 277 280 281 281 283 278 264 254 247 230 223 153 68 53 55 57 59 73 70 81 86 75 76 134 163 152 140 150 153 147 137 133 157 159 136 118 118 124 131 138 150 145 150 148 150 131 127 127 139 153 164 152 155 161 115 279 278 263 285
285 287 288 288 291 295 298 299 296 293 290 288 278 278 280 281 282 283 282 280 269 233 222 211 195 130 113 106 88 88 73 59 77 78 82 85 77 70 65 58 50 102 122 132 134 137 138 139 155 147 138 132 131 135 133 143 161 141 138 124 114 116 133 147 158 145 139 155 157 224 269 241 229 293
281 286 286 289 294 296 295 294 294 295 292 286 283 283 283 283 282 279 278 267 245 218 192 178 147 105 84 93 101 89 71 87 86 83 80 77 80 83 70 61 61 63 78 95 115 129 132 138 142 128 139 141 141 150 147 110 119 146 140 126 113 123 140 133 157 133 172 162 175 140 178 265 279 301
276 276 281 284 285 286 286 290 294 295 290 285 284 283 281 279 274 271 265 248 205 200 189 156 118 90 68 73 75 96 101 100 94 89 78 81 86 87 82 73 66 57 48 53 74 99 128 136 132 123 122 130 127 130 132 139 143 152 146 135 143 162 156 153 154 150 123 90 74 53 254 242 280 354
278 278 278 280 284 288 290 292 292 291 288 286 282 279 276 272 268 262 250 217 208 189 155 135 125 113 106 99 116 129 126 111 111 114 111 107 99 100 98 85 63 45 29 23 53 72 88 104 116 117 104 88 105 122 126 126 128 130 141 148 127 116 156 160 146 131 130 104 299 238 279 268 258 229
283 284 285 286 287 286 286 284 279 277 280 280 277 272 267 262 258 247 222 213 196 159 132 122 107 108 103 125 134 130 123 114 120 124 121 113 116 108 105 102 91 71 31 37 35 29 58 70 78 109 112 101 79 92 114 113 124 131 138 133 146 155 157 147 130 121 96 92 269 263 247 254 275 242
286 285 285 284 281 280 279 278 276 278 280 277 278 274 270 266 249 179 93 77 73 83 103 109 109 113 132 125 109 103 100 104 108 115 118 121 120 124 120 101 102 103 79 44 47 44 35 27 64 72 82 112 121 106 83 100 124 136 135 136 117 98 120 142 131 127 116 178 268 276 286 295 270 278
290 287 286 282 284 281 278 276 279 284 283 280 275 277 272 234 188 145 154 133 126 128 130 139 139 140 127 114 107 104 99 97 103 110 107 114 120 117 97 110 126 127 116 88 67 45 57 62 49 55 59 62 70 98 115 109 104 125 136 141 132 119 115 117 109 120 128 201 271 331 318 302 275 260
292 288 286 283 281 281 274 270 278 284 284 285 284 271 253 233 170 122 112 126 133 128 138 141 140 141 134 123 127 120 115 108 102 107 118 118 121 117 116 111 87 85 96 105 99 92 83 76 76 68 65 64 59 58 46 98 135 135 131 130 127 125 122 109 121 129 166 151 142 325 303 298 276 255
283 283 278 281 280 275 271 270 277 281 283 280 274 255 203 203 133 121 128 140 135 134 128 126 134 136 139 136 134 128 126 127 121 99 86 104 92 82 109 107 110 108 106 105 103 109 106 106 102 91 71 78 68 37 65 41 115 121 107 99 103 129 129 135 132 140 132 346 72 181 287 285 286 273
282 279 276 278 276 270 263 269 277 279 280 276 259 228 197 157 130 149 141 146 141 142 135 137 131 137 137 130 126 123 123 120 119 117 114 101 103 97 69 91 108 106 99 100 119 122 122 122 127 126 130 146 135 117 74 36 27 103 128 130 131 128 119 115 125 115 101 117 215 157 233 271 281 300
278 273 272 270 270 263 262 271 274 275 272 267 255 222 183 141 121 115 127 137 121 129 148 135 136 135 128 122 116 114 119 124 123 123 117 105 108 110 105 108 108 113 113 105 109 122 128 139 160 147 138 141 145 148 123 25 345 21 86 137 141 146 137 138 139 143 198 155 249 216 208 252 277 280
274 276 272 268 263 262 265 268 267 268 260 252 239 115 98 92 97 119 130 142 143 132 134 136 130 128 131 130 129 125 115 107 118 123 124 123 121 112 116 122 123 117 111 110 109 110 109 139 171 213 164 150 146 136 141 108 17 272 194 113 136 134 128 120 149 158 183 133 165 241 280 282 273 286
268 268 267 265 261 261 268 266 258 258 250 239 204 146 131 126 128 136 148 144 138 136 139 138 141 138 134 134 130 134 138 142 139 126 125 124 125 124 124 124 116 114 115 115 100 75 58 103 21 359 9 143 148 149 145 152 160 150 145 103 107 124 144 133 125 72 121 229 308 327 299 263 279 283
271 265 263 264 269 268 266 265 256 253 231 225 113 142 147 146 149 145 140 141 138 136 131 132 135 135 135 138 134 124 132 141 137 133 132 126 123 122 122 124 125 130 122 122 130 115 106 76 38 28 79 103 107 96 82 95 86 74 113 137 127 119 93 79 118 125 309 295 61 316 291 296 281 280
269 262 258 261 269 267 268 258 247 222 153 122 131 141 147 148 149 149 145 145 145 143 135 133 139 144 143 143 147 148 142 131 124 120 115 115 115 118 116 118 119 132 132 138 134 142 107 61 90 94 97 100 131 129 98 90 100 122 111 134 178 167 169 149 133 143 194 203 178 240 269 278 288 314
261 261 266 254 260 271 264 250 199 139 139 149 142 143 142 135 125 138 137 129 125 126 127 136 138 136 140 140 144 134 131 140 138 124 123 124 120 115 117 128 134 140 139 146 147 116 97 99 49 72 67 95 178 117 114 129 128 136 151 118 20 231 218 223 237 226 197 175 184 231 268 311 310 293
279 268 272 268 274 274 297 263 166 154 156 145 145 140 138 132 135 139 136 141 137 132 135 135 137 137 138 140 138 130 128 133 131 123 122 126 133 137 141 138 133 131 116 93 85 107 107 105 84 73 74 62 26 72 109 100 105 115 130 142 160 56 357 296 277 270 258 240 226 211 187 182 114 264
270 274 277 297 299 294 315 240 159 162 150 151 142 144 149 149 151 149 150 150 146 143 142 140 135 134 139 141 131 124 128 137 133 136 138 138 138 137 133 128 120 111 111 113 114 112 125 102 94 139 105 84 68 79 98 97 104 120 115 103 73 97 273 278 318 296 279 263 258 253 244 239 237 242
291 294 313 339 343 16 13 39 62 108 154 140 156 157 145 134 139 142 134 136 137 141 138 137 136 135 139 146 146 135 127 134 135 129 131 132 132 128 125 127 123 122 124 131 124 120 115 113 109 78 83 70 53 75 76 78 82 82 98 116 157 203 225 279 320 319 311 311 285 264 249 254 260 267